Regional Weather Roundup
Issued by NWS Portland, ME

Current Version | Previous Version | Text Only | Print | Product List | Glossary Off
Versions: 1 2 3 4 5 6 7 8 9 10 11 12 13 14 15 16 17 18 19 20 21 22 23 24 25 26 27 28 29 30 31 32 33 34 35 36 37 38 39 40 41 42 43 44 45 46 47 48 49 50

000
ASUS41 KGYX 052305
RWRGYX
WEATHER ROUNDUP FOR MAINE AND NEW HAMPSHIRE
NATIONAL WEATHER SERVICE GRAY ME
700 PM EDT SUN JUL 05 2015

MEZ002-005-006-010-012-015-018-020-021-024-026-027-029-060000-
MAINE

CITY           SKY/WX    TMP DP  RH WIND       PRES   REMARKS
PORTLAND       PTSUNNY   77  63  61 S3        30.03R
SANFORD        SUNNY     81  55  41 W8        30.05R
BAR HARBOR     MOSUNNY   72  63  73 SW5       30.00R
WISCASSET      SUNNY     75  58  55 VRB6      30.04R
ROCKLAND       PTSUNNY   73  57  56 W10       30.01R
FRYEBURG       SUNNY     78  56  46 NW6       30.05R
LEWISTONAUBURN SUNNY     79  57  47 NW6       30.04R
AUGUSTA        SUNNY     79  56  45 NW6       30.03R
WATERVILLE       N/A    N/A N/A N/A MISG        N/A
BANGOR         MOSUNNY   78  57  48 NW9       30.00R
GREENVILLE       N/A     70  56  61 VRB7      30.04R
MILLINOCKET    SUNNY     77  57  50 NW7       30.00R
HOULTON        MOSUNNY   74  57  55 NW6       29.97R
PRESQUE ISLE   MOSUNNY   75  55  50 NW7       29.99R
FRENCHVILLE    SUNNY     70  56  61 NW12      30.00R
CARIBOU        SUNNY     73  57  57 NW8       29.98R
$$

NHZ002-005-008-009-011-012-014-060000-
NEW HAMPSHIRE

CITY           SKY/WX    TMP DP  RH WIND       PRES   REMARKS
PORTSMOUTH     MOSUNNY   81  62  51 W6        30.03R
ROCHESTER      SUNNY     79  57  46 NW6       30.04R
NASHUA         SUNNY     81  63  54 W3        30.07R
MANCHESTER     MOSUNNY   82  58  43 W6        30.04R
CONCORD        SUNNY     81  57  43 W7        30.06R
LACONIA        SUNNY     79  55  44 W5        30.05R
PLYMOUTH       FAIR      78  63  59 CALM      30.06R
BERLIN         SUNNY     75  56  51 VRB3      30.08R
WHITEFIELD     SUNNY     76  55  48 W6        30.09R
JAFFREY        SUNNY     77  56  48 W5        30.11R
KEENE          SUNNY     79  59  50 CALM      30.09R
LEBANON        MOSUNNY   78  61  55 SW5       30.07R
MT WASHINGTON  FOG       49  47  94 NW45        N/A  VSB 1/4
$$

VTZ005-007-008-060000-
VERMONT

CITY           SKY/WX    TMP DP  RH WIND       PRES   REMARKS
ST JOHNSBURY     N/A     77  56  48 MISG      30.06S
MONTPELIER     SUNNY     73  57  57 NW5       30.13S
BURLINGTON     PTSUNNY   79  57  46 N3        30.06S
$$

MAZ007-012-024-CTZ003-RIZ002-NYZ038-NYZ072-060000-
SOUTHERN NEW ENGLAND AND NY

CITY           SKY/WX    TMP DP  RH WIND       PRES   REMARKS
WORCESTER      SUNNY     77  61  57 W6        30.12R
NANTUCKET      SUNNY     68  63  84 SW9       30.11R
PROVIDENCE     SUNNY     81  59  47 W8        30.09R
HARTFORD       SUNNY     81  57  43 NW5       30.08R
ALBANY         MOSUNNY   79  59  50 W7        30.08S
NEW YORK CITY  PTSUNNY   80  62  54 S9        30.10R
$$

ANZ081-ANZ082-ANZ150-NHZ014-MEZ023>029-060000-
COASTAL MARINE OBSERVATIONS

STATION/POSITION TIME  TEMP    WIND        PRES    WAVE
                       AIR SEA DIR/SP/G            HT/PER
                 (UTC) (F)     (DEG/KT/KT) (MB)    (FT/S)
MOUNT DESERT ROC 2300   58     220/ 16/ 16 1016.6R
MATINICUS ROCK   2200   61     240/ 17/ 18 1015.9F
ISLE OF SHOALS   2200   74     200/ 12/ 13 1016.4F
JEFFREYS LEDGE   2203      62                N/A     3/ 8
CASHES LEDGE BUO 2250   63 59              1017.0R   4/ 8
GEORGES BANK BUO 2150   63 61  240/ 10/ 12 1018.8    8/ 9
$$

.............KEY..............
   WCI - WIND CHILL
   TC  - TEMPERATURE IN CELSIUS
   VSB - VISIBILITY IN MILES
   HX  - HEAT INDEX
   FAIR- INDICATES FEW OR NO CLOUDS BELOW 12,000 FT, WITH NO
         SIGNIFICANT WEATHER AND/OR OBSTRUCTIONS TO VISIBILITY.




USA.gov is the U.S. government's official web portal to all federal, state and local government web resources and services.